IK7IZV Weather Reports


Display with metric or nautical units.
time (UTC)temp
F
wind
direction
speed
MPH
gust
MPH
rain 1hr
in
rain 24hr
in
rain mn
in
humidity
%
barometer
mb
20260904143006 84 69 7.0 12.0 0.00 0.00 0.00 67 1018.6
20260904141505 84 73 7.0 11.0 0.00 0.00 0.00 66 1018.7
20260904140005 84 44 9.0 11.0 0.00 0.00 0.00 64 1018.7
20260904134504 84 69 6.0 11.0 0.00 0.00 0.00 66 1018.8
20260904133005 84 42 5.0 11.0 0.00 0.00 0.00 64 1019.0
20260904131502 84 345 6.0 12.0 0.00 0.00 0.00 69 1019.1
20260904130001 84 73 8.0 12.0 0.00 0.00 0.00 69 1019.1
20260904124502 84 44 7.0 13.0 0.00 0.00 0.00 70 1019.1
20260904123115 84 46 9.0 14.0 0.00 0.00 0.00 71 1019.2
20260904121604 84 340 8.0 12.0 0.00 0.00 0.00 72 1019.4
20260904120105 84 66 9.0 13.0 0.00 0.00 0.00 72 1019.5
20260904114559 84 87 8.0 14.0 0.00 0.00 0.00 72 1019.7
20260904113101 84 73 8.0 13.0 0.00 0.00 0.00 73 1019.7
20260904111556 83 88 8.0 17.0 0.00 0.00 0.00 74 1019.7
20260904110059 83 70 10.0 14.0 0.00 0.00 0.00 75 1019.7
20260904104601 84 74 9.0 15.0 0.00 0.00 0.00 74 1019.6
20260904103056 84 2 10.0 13.0 0.00 0.00 0.00 73 1019.7
20260904101606 84 56 10.0 16.0 0.00 0.00 0.00 73 1019.8
20260904100059 84 42 9.0 21.0 0.00 0.00 0.00 74 1019.7
20260904094554 84 8 6.0 18.0 0.00 0.00 0.00 74 1019.7
20260904093111 84 311 10.0 19.0 0.00 0.00 0.00 74 1019.6
20260904091550 83 11 10.0 22.0 0.00 0.00 0.00 73 1019.7
20260904090052 83 23 10.0 24.0 0.00 0.00 0.00 73 1019.7
20260904084548 83 14 9.0 23.0 0.00 0.00 0.00 73 1019.8
20260904083045 82 72 9.0 23.0 0.00 0.00 0.00 73 1019.7
20260904081542 82 35 11.0 20.0 0.00 0.00 0.00 72 1019.5
20260904080042 82 42 11.0 18.0 0.00 0.00 0.00 72 1019.1
20260904074540 82 312 9.0 21.0 0.00 0.00 0.00 72 1019.1
20260904073034 81 359 14.0 21.0 0.00 0.00 0.00 72 1018.7
20260904071533 82 354 8.0 22.0 0.00 0.00 0.00 71 1018.6
20260904070043 82 42 8.0 19.0 0.00 0.00 0.00 71 1018.4
20260904064536 81 35 12.0 19.0 0.00 0.00 0.00 69 1018.3
20260904063026 81 308 10.0 15.0 0.00 0.00 0.00 67 1018.1
20260904061523 81 23 7.0 14.0 0.00 0.00 0.00 67 1018.2
20260904060022 80 338 6.0 12.0 0.00 0.00 0.00 67 1018.2
20260904054530 80 357 2.0 6.0 0.00 0.00 0.00 67 1018.2
20260904053018 79 319 2.0 5.0 0.00 0.00 0.00 67 1018.1
20260904051516 78 299 1.0 8.0 0.00 0.00 0.00 68 1017.9
20260904050019 77 306 2.0 5.0 0.00 0.00 0.00 68 1017.8
20260904044524 77 346 5.0 10.0 0.00 0.00 0.00 68 1017.7
20260904043015 77 343 3.0 9.0 0.00 0.00 0.00 69 1017.6
20260904041510 77 338 4.0 8.0 0.00 0.00 0.00 69 1017.5
20260904040010 77 286 5.0 9.0 0.00 0.00 0.00 70 1017.4
20260904034514 77 321 5.0 9.0 0.00 0.00 0.00 70 1017.4
20260904033007 77 210 4.0 11.0 0.00 0.00 0.00 71 1017.5
20260904031512 77 343 4.0 10.0 0.00 0.00 0.00 71 1017.6
20260904030006 77 351 5.0 10.0 0.00 0.00 0.00 71 1017.7
20260904024504 77 346 5.0 9.0 0.00 0.00 0.00 71 1017.6
20260904023002 77 342 4.0 7.0 0.00 0.00 0.00 71 1017.6
20260904021501 77 338 2.0 6.0 0.00 0.00 0.00 72 1017.6
20260904020001 77 345 1.0 4.0 0.00 0.00 0.00 73 1017.6
20260904014602 77 340 2.0 5.0 0.00 0.00 0.00 73 1017.5
20260904013059 77 341 1.0 6.0 0.00 0.00 0.00 73 1017.6
20260904011612 77 315 2.0 5.0 0.00 0.00 0.00 73 1017.6
20260904010109 77 324 2.0 6.0 0.00 0.00 0.00 73 1017.5
20260904004558 77 319 4.0 8.0 0.00 0.00 0.00 73 1017.3
20260904003055 77 345 5.0 10.0 0.00 0.00 0.00 73 1017.3
20260904001554 77 340 1.0 6.0 0.00 0.00 0.00 71 1017.4
20260904000059 77 315 3.0 7.0 0.00 0.00 0.00 70 1017.4
20260903234552 78 294 3.0 8.0 0.00 0.00 0.00 68 1017.4
20260903233049 78 349 3.0 10.0 0.00 0.00 0.00 67 1017.5
20260903231549 78 309 4.0 8.0 0.00 0.00 0.00 65 1017.4
20260903230049 78 335 3.0 6.0 0.00 0.00 0.00 64 1017.5
20260903224545 79 7 3.0 8.0 0.00 0.00 0.00 64 1017.5
20260903223043 79 357 2.0 7.0 0.00 0.00 0.00 64 1017.5
20260903221541 79 324 4.0 8.0 0.00 0.00 0.00 63 1017.5
20260903220040 79 307 4.0 8.0 0.00 0.00 0.00 63 1017.6
20260903214542 80 326 3.0 7.0 0.00 0.00 0.00 62 1017.5
20260903213141 80 329 3.0 6.0 0.00 0.00 0.00 61 1017.6
20260903211536 81 291 3.0 7.0 0.00 0.00 0.00 59 1017.6
20260903210036 82 354 3.0 12.0 0.00 0.00 0.00 57 1017.5
20260903204536 84 22 9.0 20.0 0.00 0.00 0.00 57 1017.3
20260903203100 84 31 13.0 21.0 0.00 0.00 0.00 55 1017.2
20260903201538 84 5 14.0 22.0 0.00 0.00 0.00 57 1017.2
20260903200033 83 359 16.0 22.0 0.00 0.00 0.00 59 1017.1
20260903194536 83 53 16.0 23.0 0.00 0.00 0.00 62 1017.1
20260903193037 83 18 16.0 23.0 0.00 0.00 0.00 64 1017.0
20260903191530 83 356 17.0 28.0 0.00 0.00 0.00 65 1017.0
20260903190031 83 40 18.0 26.0 0.00 0.00 0.00 70 1016.9
20260903184534 83 36 17.0 25.0 0.00 0.00 0.00 65 1016.7
20260903183036 84 44 15.0 20.0 0.00 0.00 0.00 63 1016.6
20260903181529 84 7 11.0 21.0 0.00 0.00 0.00 62 1016.4
20260903180029 84 42 11.0 20.0 0.00 0.00 0.00 61 1016.3
20260903174528 84 28 16.0 24.0 0.00 0.00 0.00 59 1016.2
20260903173027 84 37 14.0 20.0 0.00 0.00 0.00 60 1016.1
20260903171529 85 35 14.0 20.0 0.00 0.00 0.00 56 1016.0
20260903170027 85 44 16.0 25.0 0.00 0.00 0.00 56 1016.0
20260903164526 85 30 16.0 23.0 0.00 0.00 0.00 61 1016.0
20260903163024 85 49 16.0 24.0 0.00 0.00 0.00 60 1016.1
20260903161527 84 61 16.0 23.0 0.00 0.00 0.00 63 1016.0
20260903160031 85 21 17.0 25.0 0.00 0.00 0.00 62 1016.0
20260903154528 85 13 16.0 22.0 0.00 0.00 0.00 61 1016.1
20260903153022 84 32 14.0 21.0 0.00 0.00 0.00 68 1016.1
20260903151521 84 30 16.0 23.0 0.00 0.00 0.00 67 1016.0
20260903150026 84 39 14.0 24.0 0.00 0.00 0.00 67 1016.0
20260903144539 85 10 11.0 21.0 0.00 0.00 0.00 69 1016.0